• Em Portugal
  • Lista de países
  • Para 7 dias
  • Temperatura da água
  • Mapas de satélite
  • Mapa do tempo
  • Widgets de tempo
  • user-avatar
    Iniciar Sessão

    Previsão horária em Ghazni

    Hoje, 22 Janeiro, Segunda-feira

    Tempo Temperatura Precipitação Vento Pressão Humidade
    00:00 +1°C° 0 mm 2 m/s 580 mmHg 18%
    01:00 +1°C° 0 mm 2 m/s 580 mmHg 19%
    02:00 -1°C° 0 mm 2 m/s 580 mmHg 19%
    03:00 -1°C° 0 mm 2 m/s 579 mmHg 19%
    04:00 -1°C° 0 mm 2 m/s 579 mmHg 19%
    05:00 -2°C° 0 mm 2 m/s 579 mmHg 19%
    06:00 -2°C° 0 mm 2 m/s 579 mmHg 19%
    07:00 -2°C° 0 mm 2 m/s 579 mmHg 19%
    08:00 -2°C° 0 mm 2 m/s 579 mmHg 19%
    09:00 0°C° 0 mm 3 m/s 580 mmHg 18%
    10:00 +2°C° 0 mm 3 m/s 581 mmHg 18%
    11:00 +4°C° 0 mm 3 m/s 581 mmHg 17%
    12:00 +4°C° 0 mm 3 m/s 581 mmHg 17%
    13:00 +5°C° 0 mm 3 m/s 581 mmHg 16%
    14:00 +7°C° 0 mm 3 m/s 581 mmHg 16%
    15:00 +5°C° 0 mm 3 m/s 581 mmHg 17%
    16:00 +5°C° 0 mm 3 m/s 580 mmHg 18%
    17:00 +5°C° 0 mm 2 m/s 580 mmHg 20%
    18:00 +4°C° 0 mm 2 m/s 580 mmHg 21%
    19:00 +3°C° 0 mm 2 m/s 580 mmHg 22%
    20:00 +2°C° 0 mm 2 m/s 580 mmHg 24%
    21:00 +1°C° 0 mm 2 m/s 580 mmHg 24%
    22:00 +1°C° 0 mm 2 m/s 580 mmHg 25%
    23:00 -1°C° 0 mm 2 m/s 580 mmHg 25%

    Amanhã, 23 Janeiro, Terça-feira

    Tempo Temperatura Precipitação Vento Pressão Humidade
    00:00 -1°C° 0 mm 2 m/s 580 mmHg 25%
    01:00 -2°C° 0 mm 2 m/s 580 mmHg 25%
    02:00 -2°C° 0 mm 2 m/s 580 mmHg 25%
    03:00 -3°C° 0 mm 2 m/s 580 mmHg 25%
    04:00 -3°C° 0 mm 2 m/s 579 mmHg 25%
    05:00 -3°C° 0 mm 2 m/s 579 mmHg 25%
    06:00 -3°C° 0 mm 2 m/s 580 mmHg 25%
    07:00 -3°C° 0 mm 2 m/s 580 mmHg 25%
    08:00 -4°C° 0 mm 2 m/s 580 mmHg 25%
    09:00 -2°C° 0 mm 2 m/s 581 mmHg 24%
    10:00 +1°C° 0 mm 2 m/s 582 mmHg 22%
    11:00 +4°C° 0 mm 1 m/s 582 mmHg 21%
    12:00 +5°C° 0 mm 1 m/s 582 mmHg 21%
    13:00 +5°C° 0 mm 1 m/s 582 mmHg 21%
    14:00 +6°C° 0 mm 1 m/s 581 mmHg 20%
    15:00 +6°C° 0 mm 1 m/s 581 mmHg 22%
    16:00 +6°C° 0 mm 1 m/s 581 mmHg 23%
    17:00 +5°C° 0 mm 1 m/s 581 mmHg 25%
    18:00 +4°C° 0 mm 1 m/s 581 mmHg 27%
    19:00 +2°C° 0 mm 2 m/s 581 mmHg 29%
    20:00 -1°C° 0 mm 2 m/s 581 mmHg 31%
    21:00 -1°C° 0 mm 2 m/s 581 mmHg 31%
    22:00 +1°C° 0 mm 1 m/s 581 mmHg 32%
    23:00 0°C° 0 mm 1 m/s 580 mmHg 33%

    Depois de amanhã, 24 Janeiro, Quarta-feira

    Tempo Temperatura Precipitação Vento Pressão Humidade
    00:00 0°C° 0 mm 1 m/s 580 mmHg 34%
    01:00 0°C° 0 mm 1 m/s 580 mmHg 35%
    02:00 0°C° 0 mm 1 m/s 580 mmHg 36%
    03:00 -1°C° 0 mm 1 m/s 580 mmHg 38%
    04:00 -1°C° 0 mm 1 m/s 579 mmHg 40%
    05:00 -1°C° 0 mm 1 m/s 579 mmHg 42%
    06:00 -1°C° 0 mm 1 m/s 579 mmHg 43%
    07:00 -1°C° 0 mm 1 m/s 579 mmHg 44%
    08:00 -1°C° 0 mm 1 m/s 580 mmHg 45%
    09:00 +1°C° 0 mm 1 m/s 580 mmHg 41%
    10:00 +3°C° 0 mm 1 m/s 581 mmHg 37%
    11:00 +4°C° 0 mm 1 m/s 582 mmHg 33%
    12:00 +5°C° 0 mm 1 m/s 582 mmHg 32%
    13:00 +6°C° 0 mm 1 m/s 581 mmHg 30%
    14:00 +6°C° 0 mm 2 m/s 581 mmHg 28%
    15:00 +6°C° 0 mm 2 m/s 581 mmHg 29%
    16:00 +6°C° 0 mm 2 m/s 581 mmHg 31%
    17:00 +5°C° 0 mm 2 m/s 581 mmHg 32%
    18:00 +4°C° 0 mm 2 m/s 581 mmHg 34%
    19:00 +4°C° 0 mm 1 m/s 581 mmHg 37%
    20:00 +3°C° 0 mm 1 m/s 581 mmHg 40%
    21:00 +2°C° 0 mm 1 m/s 581 mmHg 40%
    22:00 +2°C° 0 mm 1 m/s 580 mmHg 40%
    23:00 +1°C° 0 mm 1 m/s 580 mmHg 40%

    25 Janeiro, Quinta-feira

    Tempo Temperatura Precipitação Vento Pressão Humidade
    00:00 +1°C° 0 mm 1 m/s 580 mmHg 40%
    01:00 0°C° 0 mm 1 m/s 580 mmHg 41%
    02:00 0°C° 0 mm 1 m/s 580 mmHg 41%
    03:00 0°C° 0 mm 1 m/s 580 mmHg 41%
    04:00 0°C° 0 mm 1 m/s 579 mmHg 42%
    05:00 -1°C° 0 mm 1 m/s 579 mmHg 42%
    06:00 -1°C° 0 mm 1 m/s 580 mmHg 43%
    07:00 -1°C° 0 mm 1 m/s 580 mmHg 43%
    08:00 -3°C° 0 mm 2 m/s 580 mmHg 43%
    09:00 -1°C° 0 mm 2 m/s 581 mmHg 40%
    10:00 +2°C° 0 mm 2 m/s 582 mmHg 36%
    11:00 +4°C° 0 mm 2 m/s 583 mmHg 32%
    12:00 +4°C° 0 mm 3 m/s 583 mmHg 31%
    13:00 +5°C° 0 mm 3 m/s 582 mmHg 30%
    14:00 +6°C° 0 mm 4 m/s 582 mmHg 28%
    15:00 +6°C° 0 mm 4 m/s 582 mmHg 29%
    16:00 +5°C° 0 mm 4 m/s 582 mmHg 31%
    17:00 +5°C° 0 mm 5 m/s 581 mmHg 32%
    18:00 +3°C° 0 mm 4 m/s 581 mmHg 35%
    19:00 +2°C° 0 mm 3 m/s 581 mmHg 39%
    20:00 0°C° 0 mm 3 m/s 581 mmHg 42%
    21:00 0°C° 0 mm 3 m/s 581 mmHg 43%
    22:00 -1°C° 0 mm 2 m/s 581 mmHg 45%
    23:00 -1°C° 0 mm 2 m/s 581 mmHg 46%

    26 Janeiro, Sexta-feira

    Tempo Temperatura Precipitação Vento Pressão Humidade
    00:00 -2°C° 0 mm 2 m/s 581 mmHg 47%
    01:00 -2°C° 0 mm 2 m/s 581 mmHg 48%
    02:00 -2°C° 0 mm 3 m/s 581 mmHg 50%
    03:00 -4°C° 0 mm 3 m/s 581 mmHg 50%
    04:00 -4°C° 0 mm 3 m/s 581 mmHg 51%
    05:00 -4°C° 0 mm 3 m/s 581 mmHg 51%
    06:00 -4°C° 0 mm 3 m/s 581 mmHg 50%
    07:00 -5°C° 0 mm 3 m/s 581 mmHg 50%
    08:00 -5°C° 0 mm 3 m/s 582 mmHg 49%
    09:00 -2°C° 0 mm 2 m/s 582 mmHg 44%
    10:00 +1°C° 0 mm 2 m/s 583 mmHg 39%
    11:00 +3°C° 0 mm 2 m/s 583 mmHg 35%
    12:00 +4°C° 0 mm 2 m/s 583 mmHg 32%
    13:00 +5°C° 0 mm 2 m/s 582 mmHg 30%
    14:00 +6°C° 0 mm 2 m/s 582 mmHg 27%
    15:00 +5°C° 0 mm 2 m/s 582 mmHg 28%
    16:00 +5°C° 0 mm 2 m/s 582 mmHg 29%
    17:00 +5°C° 0 mm 2 m/s 582 mmHg 30%
    18:00 +4°C° 0 mm 2 m/s 581 mmHg 32%
    19:00 +2°C° 0 mm 2 m/s 581 mmHg 34%
    20:00 +1°C° 0 mm 2 m/s 581 mmHg 37%
    21:00 -1°C° 0 mm 2 m/s 581 mmHg 37%
    22:00 -1°C° 0 mm 2 m/s 581 mmHg 38%
    23:00 -2°C° 0 mm 2 m/s 581 mmHg 38%

    27 Janeiro, Sábado

    Tempo Temperatura Precipitação Vento Pressão Humidade
    00:00 -2°C° 0 mm 2 m/s 581 mmHg 38%
    01:00 -2°C° 0 mm 2 m/s 581 mmHg 39%
    02:00 -3°C° 0 mm 2 m/s 580 mmHg 39%
    03:00 -3°C° 0 mm 2 m/s 580 mmHg 39%
    04:00 -3°C° 0 mm 2 m/s 580 mmHg 39%
    05:00 -4°C° 0 mm 2 m/s 580 mmHg 39%
    06:00 -4°C° 0 mm 2 m/s 580 mmHg 39%
    07:00 -4°C° 0 mm 2 m/s 580 mmHg 38%
    08:00 -4°C° 0 mm 2 m/s 580 mmHg 37%
    09:00 -2°C° 0 mm 2 m/s 581 mmHg 34%
    10:00 +2°C° 0 mm 1 m/s 581 mmHg 31%
    11:00 +4°C° 0 mm 1 m/s 582 mmHg 28%
    12:00 +4°C° 0 mm 2 m/s 582 mmHg 27%
    13:00 +5°C° 0 mm 2 m/s 581 mmHg 26%
    14:00 +6°C° 0 mm 2 m/s 581 mmHg 24%
    15:00 +6°C° 0 mm 2 m/s 581 mmHg 25%
    16:00 +6°C° 0 mm 2 m/s 581 mmHg 26%
    17:00 +6°C° 0 mm 2 m/s 580 mmHg 27%
    18:00 +4°C° 0 mm 2 m/s 580 mmHg 29%
    19:00 +3°C° 0 mm 2 m/s 580 mmHg 32%
    20:00 +3°C° 0 mm 1 m/s 580 mmHg 34%
    21:00 +2°C° 0 mm 1 m/s 580 mmHg 34%
    22:00 +2°C° 0 mm 1 m/s 580 mmHg 35%
    23:00 +1°C° 0 mm 1 m/s 579 mmHg 35%
    Mostrar mais